| time (UTC) | temp C | wind direction | speed KPH | gust KPH | rain 1hr cm | rain 24hr cm | rain mn cm | humidity % | barometer mb |
| 20260506081506 | 2 | 35 | 1.6 | 4.8 | 0.00 | 0.00 | 0.00 | 35 | 979.8 |
| 20260506081006 | 2 | 154 | 6.4 | 11.3 | 0.00 | 0.00 | 0.00 | 32 | 978.6 |
| 20260506080505 | 2 | 101 | 1.6 | 4.8 | 0.00 | 0.00 | 0.00 | 38 | 979.2 |
| 20260506073508 | 2 | 207 | 6.4 | 12.9 | 0.00 | 0.00 | 0.00 | 29 | 979.5 |
| 20260506072507 | 3 | 156 | 9.7 | 16.1 | 0.00 | 0.00 | 0.00 | 27 | 978.5 |
| 20260506072006 | 2 | 178 | 11.3 | 19.3 | 0.00 | 0.00 | 0.00 | 27 | 978.4 |
| 20260506071506 | 2 | 139 | 4.8 | 11.3 | 0.00 | 0.00 | 0.00 | 30 | 978.3 |
| 20260506070505 | 2 | 150 | 6.4 | 6.4 | 0.00 | 0.00 | 0.00 | 32 | 978.9 |
| 20260506062007 | 2 | 176 | 4.8 | 11.3 | 0.00 | 0.00 | 0.00 | 28 | 978.7 |
| 20260506061506 | 2 | 162 | 17.7 | 29.0 | 0.00 | 0.00 | 0.00 | 31 | 979.4 |
| 20260506061006 | 2 | 182 | 17.7 | 22.5 | 0.00 | 0.00 | 0.00 | 31 | 978.3 |
| 20260506060505 | 2 | 196 | 22.5 | 30.6 | 0.00 | 0.00 | 0.00 | 28 | 978.5 |
| 20260506051005 | 2 | 225 | 14.5 | 24.1 | 0.00 | 0.00 | 0.00 | 33 | 979.1 |
| 20260506050504 | 2 | 232 | 19.3 | 22.5 | 0.00 | 0.00 | 0.00 | 32 | 978.9 |
| 20260506045009 | 3 | 220 | 9.7 | 12.9 | 0.00 | 0.00 | 0.00 | 33 | 978.2 |
| 20260506044508 | 2 | 236 | 9.7 | 17.7 | 0.00 | 0.00 | 0.00 | 32 | 977.8 |
| 20260506044007 | 2 | 222 | 14.5 | 20.9 | 0.00 | 0.00 | 0.00 | 30 | 978.3 |
| 20260506043507 | 3 | 235 | 4.8 | 9.7 | 0.00 | 0.00 | 0.00 | 36 | 978.7 |
| 20260506043006 | 2 | 298 | 8.0 | 11.3 | 0.00 | 0.00 | 0.00 | 34 | 978.4 |
| 20260506042506 | 3 | 286 | 6.4 | 8.0 | 0.00 | 0.00 | 0.00 | 30 | 978.2 |
| 20260506042006 | 3 | 225 | 12.9 | 17.7 | 0.00 | 0.00 | 0.00 | 31 | 979.1 |
| 20260506041505 | 3 | 228 | 9.7 | 16.1 | 0.00 | 0.00 | 0.00 | 36 | 978.5 |
| 20260506041004 | 4 | 182 | 12.9 | 17.7 | 0.00 | 0.00 | 0.00 | 34 | 978.1 |
| 20260506040504 | 5 | 117 | 8.0 | 17.7 | 0.00 | 0.00 | 0.00 | 34 | 978.7 |
| 20260506040009 | 5 | 127 | 4.8 | 8.0 | 0.00 | 0.00 | 0.00 | 36 | 979.0 |
| 20260506035008 | 5 | 95 | 3.2 | 6.4 | 0.00 | 0.00 | 0.00 | 38 | 978.5 |
| 20260506034507 | 5 | 88 | 4.8 | 11.3 | 0.00 | 0.00 | 0.00 | 38 | 978.6 |
| 20260506034006 | 5 | 102 | 3.2 | 6.4 | 0.00 | 0.00 | 0.00 | 40 | 978.3 |
| 20260506033506 | 4 | 110 | 9.7 | 12.9 | 0.00 | 0.00 | 0.00 | 36 | 979.1 |
| 20260506033005 | 3 | 255 | 3.2 | 9.7 | 0.00 | 0.00 | 0.00 | 40 | 978.7 |
| 20260506032504 | 4 | 86 | 6.4 | 14.5 | 0.00 | 0.00 | 0.00 | 44 | 977.9 |
| 20260506032004 | 3 | 158 | 11.3 | 16.1 | 0.00 | 0.00 | 0.00 | 42 | 977.4 |
| 20260506031508 | 3 | 161 | 14.5 | 20.9 | 0.00 | 0.00 | 0.00 | 42 | 977.9 |
| 20260506030508 | 3 | 169 | 9.7 | 16.1 | 0.00 | 0.00 | 0.00 | 41 | 977.9 |
| 20260506030007 | 3 | 174 | 12.9 | 20.9 | 0.00 | 0.00 | 0.00 | 40 | 977.5 |
| 20260506025506 | 3 | 179 | 20.9 | 20.9 | 0.00 | 0.00 | 0.00 | 39 | 976.8 |
| 20260506025006 | 3 | 188 | 20.9 | 20.9 | 0.00 | 0.00 | 0.00 | 36 | 978.2 |
| 20260506024005 | 3 | 201 | 12.9 | 12.9 | 0.00 | 0.00 | 0.00 | 35 | 977.8 |
| 20260506023505 | 3 | 203 | 25.7 | 25.7 | 0.00 | 0.00 | 0.00 | 31 | 976.6 |
| 20260506023004 | 3 | 203 | 27.4 | 35.4 | 0.00 | 0.00 | 0.00 | 31 | 976.6 |
| 20260506022503 | 3 | 227 | 24.1 | 24.1 | 0.00 | 0.00 | 0.00 | 30 | 976.7 |
| 20260506022009 | 3 | 196 | 29.0 | 29.0 | 0.00 | 0.00 | 0.00 | 30 | 976.2 |
| 20260506021507 | 3 | 208 | 16.1 | 19.3 | 0.00 | 0.00 | 0.00 | 32 | 976.2 |
| 20260506021007 | 3 | 209 | 24.1 | 29.0 | 0.00 | 0.00 | 0.00 | 33 | 976.3 |
| 20260506020504 | 3 | 226 | 22.5 | 30.6 | 0.00 | 0.00 | 0.00 | 31 | 976.5 |
| 20260506020004 | 3 | 209 | 25.7 | 33.8 | 0.00 | 0.00 | 0.00 | 33 | 976.3 |
| 20260506015503 | 3 | 212 | 24.1 | 32.2 | 0.00 | 0.00 | 0.00 | 35 | 976.7 |
| 20260506015009 | 3 | 187 | 20.9 | 27.4 | 0.00 | 0.00 | 0.00 | 37 | 977.2 |
| 20260506014508 | 3 | 208 | 19.3 | 29.0 | 0.00 | 0.00 | 0.00 | 37 | 977.1 |
| 20260506014007 | 3 | 225 | 20.9 | 24.1 | 0.00 | 0.00 | 0.00 | 35 | 977.3 |
| 20260506013504 | 4 | 196 | 20.9 | 24.1 | 0.00 | 0.00 | 0.00 | 37 | 976.9 |
| 20260506013004 | 4 | 197 | 19.3 | 29.0 | 0.00 | 0.00 | 0.00 | 33 | 976.4 |
| 20260506012503 | 4 | 200 | 12.9 | 12.9 | 0.00 | 0.00 | 0.00 | 34 | 976.5 |
| 20260506012003 | 4 | 186 | 9.7 | 9.7 | 0.00 | 0.00 | 0.00 | 35 | 976.5 |
| 20260506011508 | 4 | 180 | 37.0 | 43.5 | 0.00 | 0.00 | 0.00 | 33 | 976.3 |
| 20260506011008 | 4 | 175 | 22.5 | 32.2 | 0.00 | 0.00 | 0.00 | 34 | 976.7 |
| 20260506010507 | 5 | 195 | 20.9 | 32.2 | 0.00 | 0.00 | 0.00 | 32 | 976.1 |
| 20260506010006 | 5 | 195 | 29.0 | 41.8 | 0.00 | 0.00 | 0.00 | 29 | 977.1 |
| 20260506005506 | 5 | 175 | 22.5 | 29.0 | 0.00 | 0.00 | 0.00 | 31 | 977.0 |
| 20260506005006 | 5 | 171 | 9.7 | 20.9 | 0.00 | 0.00 | 0.00 | 33 | 976.3 |
| 20260506004505 | 5 | 160 | 16.1 | 20.9 | 0.00 | 0.00 | 0.00 | 31 | 976.1 |
| 20260506004004 | 5 | 177 | 11.3 | 24.1 | 0.00 | 0.00 | 0.00 | 29 | 976.7 |
| 20260506003503 | 6 | 279 | 9.7 | 19.3 | 0.00 | 0.00 | 0.00 | 29 | 976.4 |
| 20260506003003 | 6 | 207 | 11.3 | 22.5 | 0.00 | 0.00 | 0.00 | 28 | 976.4 |
| 20260506002508 | 7 | 200 | 4.8 | 11.3 | 0.00 | 0.00 | 0.00 | 33 | 976.5 |
| 20260506002007 | 6 | 209 | 3.2 | 9.7 | 0.00 | 0.00 | 0.00 | 34 | 977.2 |
| 20260506001507 | 6 | 166 | 9.7 | 22.5 | 0.00 | 0.00 | 0.00 | 29 | 976.2 |
| 20260506001006 | 6 | 188 | 14.5 | 37.0 | 0.00 | 0.00 | 0.00 | 27 | 976.1 |
| 20260506000506 | 6 | 180 | 14.5 | 20.9 | 0.00 | 0.00 | 0.00 | 26 | 975.9 |
| 20260506000005 | 7 | 117 | 4.8 | 11.3 | 0.00 | 0.00 | 0.00 | 29 | 976.8 |
| 20260505235505 | 7 | 174 | 6.4 | 16.1 | 0.00 | 0.00 | 0.00 | 31 | 976.3 |
| 20260505235004 | 6 | 176 | 9.7 | 20.9 | 0.00 | 0.00 | 0.00 | 31 | 975.4 |
| 20260505234504 | 6 | 174 | 11.3 | 20.9 | 0.00 | 0.00 | 0.00 | 33 | 976.0 |
| 20260505233503 | 6 | 179 | 19.3 | 24.1 | 0.00 | 0.00 | 0.00 | 32 | 978.1 |
| 20260505233008 | 6 | 200 | 3.2 | 16.1 | 0.00 | 0.00 | 0.00 | 39 | 977.1 |
| 20260505232508 | 5 | 177 | 20.9 | 32.2 | 0.00 | 0.00 | 0.00 | 33 | 975.8 |
| 20260505232007 | 6 | 180 | 11.3 | 17.7 | 0.00 | 0.00 | 0.00 | 32 | 977.2 |
| 20260505231519 | 6 | 114 | 12.9 | 19.3 | 0.00 | 0.00 | 0.00 | 34 | 977.4 |
| 20260505231006 | 6 | 152 | 20.9 | 30.6 | 0.00 | 0.00 | 0.00 | 30 | 976.8 |
| 20260505230505 | 7 | 138 | 8.0 | 16.1 | 0.00 | 0.00 | 0.00 | 34 | 977.4 |
| 20260505230005 | 6 | 93 | 8.0 | 17.7 | 0.00 | 0.00 | 0.00 | 36 | 977.7 |
| 20260505225504 | 7 | 278 | 3.2 | 3.2 | 0.00 | 0.00 | 0.00 | 32 | 977.0 |
| 20260505225004 | 7 | 278 | 3.2 | 3.2 | 0.00 | 0.00 | 0.00 | 32 | 977.0 |
| 20260505224503 | 7 | 172 | 12.9 | 12.9 | 0.00 | 0.00 | 0.00 | 34 | 977.3 |
| 20260505224009 | 7 | 164 | 12.9 | 12.9 | 0.00 | 0.00 | 0.00 | 32 | 977.4 |
| 20260505223508 | 7 | 102 | 9.7 | 11.3 | 0.00 | 0.00 | 0.00 | 29 | 977.0 |
| 20260505223008 | 7 | 93 | 4.8 | 9.7 | 0.00 | 0.00 | 0.00 | 35 | 976.9 |
| 20260505222507 | 7 | 75 | 3.2 | 3.2 | 0.00 | 0.00 | 0.00 | 32 | 976.5 |
| 20260505222006 | 7 | 29 | 6.4 | 6.4 | 0.00 | 0.00 | 0.00 | 32 | 976.6 |
| 20260505221506 | 7 | 29 | 6.4 | 8.0 | 0.00 | 0.00 | 0.00 | 32 | 976.6 |
| 20260505221005 | 7 | 16 | 6.4 | 6.4 | 0.00 | 0.00 | 0.00 | 32 | 976.8 |
| 20260505215506 | 7 | 151 | 11.3 | 19.3 | 0.00 | 0.00 | 0.00 | 32 | 977.0 |
| 20260505215006 | 7 | 161 | 11.3 | 24.1 | 0.00 | 0.00 | 0.00 | 33 | 977.1 |
| 20260505214505 | 7 | 158 | 16.1 | 25.7 | 0.00 | 0.00 | 0.00 | 31 | 977.8 |
| 20260505214004 | 7 | 69 | 9.7 | 16.1 | 0.00 | 0.00 | 0.00 | 32 | 976.8 |
| 20260505213504 | 7 | 148 | 11.3 | 19.3 | 0.00 | 0.00 | 0.00 | 36 | 976.1 |
| 20260505213003 | 7 | 107 | 9.7 | 16.1 | 0.00 | 0.00 | 0.00 | 36 | 975.9 |
| 20260505212509 | 6 | 109 | 16.1 | 30.6 | 0.00 | 0.00 | 0.00 | 33 | 976.0 |
| 20260505212008 | 6 | 66 | 11.3 | 14.5 | 0.00 | 0.00 | 0.00 | 36 | 976.5 |
| 20260505211007 | 6 | 78 | 12.9 | 24.1 | 0.00 | 0.00 | 0.00 | 38 | 977.0 |
| 20260505210505 | 5 | 51 | 9.7 | 14.5 | 0.00 | 0.00 | 0.00 | 39 | 977.1 |
| 20260505210005 | 4 | 162 | 27.4 | 37.0 | 0.00 | 0.00 | 0.00 | 37 | 976.8 |
| 20260505205510 | 3 | 170 | 29.0 | 41.8 | 0.00 | 0.00 | 0.00 | 39 | 977.6 |
| 20260505204503 | 5 | 99 | 12.9 | 25.7 | 0.00 | 0.00 | 0.00 | 48 | 976.4 |
| 20260505204003 | 4 | 162 | 29.0 | 40.2 | 0.00 | 0.00 | 0.00 | 44 | 975.9 |
| 20260505203502 | 4 | 127 | 25.7 | 38.6 | 0.00 | 0.00 | 0.00 | 45 | 977.0 |
| 20260505203008 | 3 | 173 | 17.7 | 37.0 | 0.00 | 0.00 | 0.00 | 45 | 977.1 |
| 20260505202507 | 3 | 166 | 24.1 | 33.8 | 0.00 | 0.00 | 0.00 | 43 | 977.4 |
| 20260505202006 | 4 | 158 | 20.9 | 29.0 | 0.00 | 0.00 | 0.00 | 44 | 977.4 |
| 20260505201006 | 5 | 353 | 8.0 | 17.7 | 0.00 | 0.00 | 0.00 | 47 | 977.4 |
| 20260505200505 | 5 | 138 | 12.9 | 27.4 | 0.00 | 0.00 | 0.00 | 46 | 977.6 |
| 20260505200004 | 4 | 162 | 14.5 | 35.4 | 0.00 | 0.00 | 0.00 | 43 | 977.2 |
| 20260505195510 | 5 | 44 | 14.5 | 19.3 | 0.00 | 0.00 | 0.00 | 41 | 977.3 |
| 20260505195006 | 5 | 28 | 14.5 | 17.7 | 0.00 | 0.00 | 0.00 | 43 | 976.6 |
| 20260505194005 | 5 | 87 | 9.7 | 16.1 | 0.00 | 0.00 | 0.00 | 46 | 976.6 |
| 20260505193504 | 5 | 143 | 9.7 | 16.1 | 0.00 | 0.00 | 0.00 | 47 | 976.2 |
| 20260505193004 | 5 | 55 | 9.7 | 20.9 | 0.00 | 0.00 | 0.00 | 50 | 976.7 |
| 20260505192503 | 5 | 63 | 12.9 | 27.4 | 0.00 | 0.00 | 0.00 | 50 | 976.4 |
| 20260505192003 | 4 | 2 | 14.5 | 43.5 | 0.00 | 0.00 | 0.00 | 41 | 976.6 |
| 20260505191508 | 5 | 90 | 29.0 | 49.9 | 0.00 | 0.00 | 0.00 | 43 | 977.1 |
| 20260505191007 | 5 | 179 | 6.4 | 14.5 | 0.00 | 0.00 | 0.00 | 49 | 977.1 |
| 20260505190006 | 6 | 13 | 8.0 | 12.9 | 0.00 | 0.00 | 0.00 | 49 | 977.1 |
| 20260505185506 | 6 | 23 | 16.1 | 20.9 | 0.00 | 0.00 | 0.00 | 43 | 977.0 |
| 20260505185005 | 5 | 9 | 12.9 | 17.7 | 0.00 | 0.00 | 0.00 | 44 | 977.1 |
| 20260505184504 | 5 | 20 | 8.0 | 12.9 | 0.00 | 0.00 | 0.00 | 50 | 976.7 |
| 20260505184004 | 5 | 9 | 19.3 | 19.3 | 0.00 | 0.00 | 0.00 | 48 | 976.8 |
| 20260505183509 | 5 | 9 | 19.3 | 19.3 | 0.00 | 0.00 | 0.00 | 48 | 976.8 |
| 20260505183008 | 5 | 9 | 16.1 | 19.3 | 0.00 | 0.00 | 0.00 | 48 | 976.8 |
| 20260505182006 | 5 | 352 | 25.7 | 25.7 | 0.00 | 0.00 | 0.00 | 45 | 978.1 |
| 20260505181506 | 5 | 88 | 11.3 | 17.7 | 0.00 | 0.00 | 0.00 | 49 | 977.9 |
| 20260505180505 | 5 | 354 | 14.5 | 14.5 | 0.00 | 0.00 | 0.00 | 46 | 976.9 |
| 20260505180004 | 5 | 4 | 14.5 | 17.7 | 0.00 | 0.00 | 0.00 | 46 | 978.5 |
| 20260505175503 | 5 | 7 | 20.9 | 20.9 | 0.00 | 0.00 | 0.00 | 47 | 976.8 |
| 20260505175003 | 4 | 168 | 12.9 | 24.1 | 0.00 | 0.00 | 0.00 | 47 | 977.1 |
| 20260505174508 | 5 | 358 | 14.5 | 22.5 | 0.00 | 0.00 | 0.00 | 44 | 977.5 |
| 20260505174008 | 5 | 94 | 17.7 | 24.1 | 0.00 | 0.00 | 0.00 | 43 | 976.3 |
| 20260505173007 | 5 | 4 | 14.5 | 16.1 | 0.00 | 0.00 | 0.00 | 44 | 976.5 |
| 20260505172506 | 5 | 9 | 17.7 | 22.5 | 0.00 | 0.00 | 0.00 | 44 | 977.0 |
| 20260505172006 | 5 | 8 | 14.5 | 20.9 | 0.00 | 0.00 | 0.00 | 45 | 976.6 |
| 20260505171505 | 5 | 8 | 19.3 | 24.1 | 0.00 | 0.00 | 0.00 | 43 | 976.7 |
| 20260505171004 | 5 | 358 | 19.3 | 24.1 | 0.00 | 0.00 | 0.00 | 44 | 976.3 |
| 20260505170504 | 5 | 332 | 11.3 | 19.3 | 0.00 | 0.00 | 0.00 | 46 | 976.4 |
| 20260505170003 | 4 | 336 | 16.1 | 22.5 | 0.00 | 0.00 | 0.00 | 43 | 976.9 |
| 20260505165508 | 4 | 331 | 11.3 | 22.5 | 0.00 | 0.00 | 0.00 | 49 | 977.0 |
| 20260505165008 | 4 | 332 | 11.3 | 24.1 | 0.00 | 0.00 | 0.00 | 48 | 978.3 |
| 20260505164507 | 5 | 344 | 19.3 | 24.1 | 0.00 | 0.00 | 0.00 | 43 | 977.3 |
| 20260505163506 | 4 | 345 | 16.1 | 24.1 | 0.00 | 0.00 | 0.00 | 46 | 977.1 |
| 20260505163007 | 4 | 337 | 16.1 | 22.5 | 0.00 | 0.00 | 0.00 | 44 | 977.4 |
| 20260505162004 | 4 | 287 | 14.5 | 20.9 | 0.00 | 0.00 | 0.00 | 45 | 977.2 |
| 20260505161504 | 5 | 347 | 19.3 | 25.7 | 0.00 | 0.00 | 0.00 | 42 | 976.9 |
| 20260505161003 | 4 | 225 | 11.3 | 19.3 | 0.00 | 0.00 | 0.00 | 50 | 977.2 |
| 20260505153006 | 4 | 340 | 19.3 | 20.9 | 0.00 | 0.00 | 0.00 | 44 | 976.9 |
| 20260505152505 | 4 | 281 | 19.3 | 24.1 | 0.00 | 0.00 | 0.00 | 45 | 976.1 |
| 20260505152004 | 4 | 337 | 16.1 | 20.9 | 0.00 | 0.00 | 0.00 | 46 | 976.5 |
| 20260505151503 | 3 | 340 | 12.9 | 20.9 | 0.00 | 0.00 | 0.00 | 47 | 976.3 |
| 20260505150509 | 3 | 185 | 4.8 | 11.3 | 0.00 | 0.00 | 0.00 | 52 | 976.9 |
| 20260505140504 | 3 | 214 | 16.1 | 16.1 | 0.00 | 0.00 | 0.00 | 49 | 975.9 |
| 20260505125007 | 3 | 344 | 22.5 | 29.0 | 0.00 | 0.00 | 0.00 | 44 | 975.2 |
| 20260505124506 | 3 | 346 | 17.7 | 24.1 | 0.00 | 0.00 | 0.00 | 46 | 975.4 |
| 20260505124006 | 3 | 336 | 22.5 | 25.7 | 0.00 | 0.00 | 0.00 | 45 | 975.5 |
| 20260505123505 | 4 | 345 | 25.7 | 29.0 | 0.00 | 0.00 | 0.00 | 43 | 975.5 |
| 20260505123005 | 3 | 277 | 16.1 | 25.7 | 0.00 | 0.00 | 0.00 | 47 | 975.3 |
| 20260505122504 | 3 | 351 | 14.5 | 22.5 | 0.00 | 0.00 | 0.00 | 46 | 975.0 |
| 20260505122004 | 4 | 332 | 20.9 | 25.7 | 0.00 | 0.00 | 0.00 | 45 | 975.3 |
| 20260505121503 | 4 | 319 | 19.3 | 22.5 | 0.00 | 0.00 | 0.00 | 45 | 975.6 |
| 20260505121002 | 4 | 327 | 25.7 | 29.0 | 0.00 | 0.00 | 0.00 | 43 | 975.0 |
| 20260505120508 | 4 | 333 | 22.5 | 25.7 | 0.00 | 0.00 | 0.00 | 44 | 974.4 |
| 20260505115507 | 3 | 322 | 9.7 | 17.7 | 0.00 | 0.00 | 0.00 | 48 | 975.2 |
| 20260505115006 | 4 | 310 | 19.3 | 25.7 | 0.00 | 0.00 | 0.00 | 45 | 974.4 |
| 20260505114506 | 4 | 339 | 24.1 | 30.6 | 0.00 | 0.00 | 0.00 | 43 | 975.6 |
| 20260505113505 | 4 | 332 | 22.5 | 25.7 | 0.00 | 0.00 | 0.00 | 44 | 975.6 |
| 20260505113004 | 4 | 328 | 24.1 | 30.6 | 0.00 | 0.00 | 0.00 | 44 | 975.6 |
| 20260505112503 | 5 | 340 | 22.5 | 27.4 | 0.00 | 0.00 | 0.00 | 45 | 975.5 |
| 20260505112003 | 5 | 322 | 27.4 | 32.2 | 0.00 | 0.00 | 0.00 | 45 | 975.6 |
| 20260505111508 | 5 | 315 | 29.0 | 35.4 | 0.00 | 0.00 | 0.00 | 44 | 976.1 |
| 20260505111008 | 5 | 331 | 25.7 | 30.6 | 0.00 | 0.00 | 0.00 | 44 | 975.1 |
| 20260505110506 | 4 | 310 | 29.0 | 32.2 | 0.00 | 0.00 | 0.00 | 44 | 975.1 |
| 20260505102007 | 4 | 322 | 27.4 | 33.8 | 0.00 | 0.00 | 0.00 | 46 | 976.9 |
| 20260505101506 | 4 | 333 | 27.4 | 33.8 | 0.00 | 0.00 | 0.00 | 44 | 976.5 |
| 20260505101006 | 3 | 290 | 22.5 | 32.2 | 0.00 | 0.00 | 0.00 | 46 | 976.4 |
| 20260505100005 | 4 | 325 | 24.1 | 35.4 | 0.00 | 0.00 | 0.00 | 45 | 976.0 |
| 20260505095504 | 4 | 338 | 22.5 | 30.6 | 0.00 | 0.00 | 0.00 | 45 | 975.3 |
| 20260505095004 | 4 | 304 | 25.7 | 33.8 | 0.00 | 0.00 | 0.00 | 45 | 976.0 |
| 20260505094503 | 3 | 290 | 20.9 | 35.4 | 0.00 | 0.00 | 0.00 | 46 | 975.5 |
| 20260505094003 | 3 | 339 | 20.9 | 32.2 | 0.00 | 0.00 | 0.00 | 47 | 976.6 |
| 20260505093002 | 3 | 301 | 25.7 | 30.6 | 0.00 | 0.00 | 0.00 | 45 | 976.7 |
| 20260505092508 | 3 | 293 | 29.0 | 38.6 | 0.00 | 0.00 | 0.00 | 45 | 976.3 |
| 20260505092007 | 3 | 301 | 27.4 | 32.2 | 0.00 | 0.00 | 0.00 | 45 | 976.0 |
| 20260505091507 | 3 | 328 | 30.6 | 37.0 | 0.00 | 0.00 | 0.00 | 45 | 976.7 |
| 20260505091006 | 3 | 305 | 30.6 | 38.6 | 0.00 | 0.00 | 0.00 | 44 | 976.8 |
| 20260505090505 | 3 | 324 | 19.3 | 29.0 | 0.00 | 0.00 | 0.00 | 46 | 977.5 |
| 20260505090005 | 3 | 299 | 27.4 | 37.0 | 0.00 | 0.00 | 0.00 | 45 | 977.3 |
| 20260505085004 | 3 | 325 | 14.5 | 14.5 | 0.00 | 0.00 | 0.00 | 46 | 978.2 |
| 20260505084503 | 3 | 300 | 17.7 | 22.5 | 0.00 | 0.00 | 0.00 | 46 | 978.2 |
| 20260505084009 | 3 | 282 | 17.7 | 17.7 | 0.00 | 0.00 | 0.00 | 47 | 978.7 |
| 20260505083508 | 3 | 330 | 16.1 | 27.4 | 0.00 | 0.00 | 0.00 | 46 | 978.7 |
| 20260505082507 | 3 | 287 | 17.7 | 19.3 | 0.00 | 0.00 | 0.00 | 47 | 978.4 |
| 20260505082007 | 3 | 322 | 19.3 | 22.5 | 0.00 | 0.00 | 0.00 | 46 | 978.9 |